sat.trackr.live / text

‹ back to catalog

STARLINK-2673

NORAD 48649 · 2021-044M

PAYLOAD ACTIVE UNKNOWN

§ Identity

Operator
Country
US
Launch date
2021-05-26
Launch site
AFETR
Launch vehicle
Mass (kg)
RCS (m²)

Purposes: comms

External: N2YO · Heavens-Above · Gunter

§ Orbital elements

Epoch: 2026-09-09T12:59:06.979200Z

Period
94.01 min
Inclination
53.1603°
Eccentricity
0.0001224
Mean motion
15.31717739 rev/d
Perigee alt
469.8 km
Apogee alt
471.5 km
Semi-major
6,848.8 km
B*
1.2189e-4
RAAN
338.2260°
Arg perigee
70.7067°
Mean anomaly
289.4066°
Rev number
29,199

§ Raw data

STARLINK-26731 48649U 21044M   26252.54105300  .00003421  00000+0  12189-3 0  99902 48649  53.1603 338.2260 0001224  70.7067 289.4066 15.31717739291990

JSON: /api/v1/satellites/48649 · /tle

For live sub-satellite position, see the globe view (requires WebGL).

§ Visibility from observer

Set your observer location to see the next 7 days of passes ≥ 10°. The values pass through the URL so the page stays shareable.

No JS? Fill the form by hand. The geolocation button needs JavaScript.